Temperature
14 14 14 14 14 14 14 14 14 13 13 13 13 13 12 12 12 11 11 11 11 11 11 11 11 10 10 10 10 10 9 9 9 9 9 9 9 9 9 9 9 9 9
13 13 13 13 13 13 13 13 13 13 13 13 12 12 12 12 11 11 11 11 11 11 11 11 10 10 10 10 10 10 10 9 9 9 9 9 8 8 8 8 8 8 8
13 13 13 13 13 13 13 13 13 13 12 12 12 12 12 11 11 11 11 10 10 10 10 10 10 10 10 10 10 10 10 10 9 9 9 8 8 8 8 8 8 8 8
12 12 12 13 13 13 13 13 12 12 12 12 12 11 11 11 11 11 10 10 10 10 10 10 10 10 9 9 9 10 9 9 9 8 8 8 8 8 7 7 7 7 7
12 12 12 12 12 12 12 12 12 12 12 12 11 11 11 11 10 10 10 10 10 10 10 10 9 9 9 9 9 9 9 9 9 8 8 8 7 7 7 7 7 7 7
12 12 12 12 12 12 12 12 12 11 11 11 11 11 11 10 10 10 10 10 9 9 9 9 9 9 9 9 9 9 9 9 8 8 8 7 7 7 7 6 6 6 6
11 11 11 11 11 11 11 11 11 11 11 11 10 10 10 10 10 10 9 9 9 9 9 9 8 8 8 8 8 8 8 8 8 8 7 7 7 6 6 6 6 6 6
11 11 11 11 11 11 11 11 11 11 10 10 10 9 8 8 9 9 9 9 9 9 8 8 8 8 8 8 8 8 8 8 7 7 7 6 6 6 6 6 6 5 5
10 10 10 10 10 10 10 10 10 10 10 10 9 9 8 9 8 8 9 8 8 8 8 8 8 7 7 7 7 7 7 7 7 7 6 6 6 6 6 5 5 5 5
10 10 10 10 10 10 10 10 10 10 9 9 9 9 9 8 7 7 8 8 8 8 7 7 7 7 7 7 7 7 7 7 6 6 6 6 6 5 5 5 5 5 5
10 10 10 10 9 10 10 10 10 9 9 9 9 8 8 8 7 7 7 7 7 7 7 7 7 7 6 6 6 6 6 6 6 6 5 5 5 5 5 5 5 5 5
9 9 9 9 9 9 9 9 9 9 9 9 8 8 8 7 7 7 6 6 6 7 7 7 6 6 6 6 6 6 6 6 6 5 5 5 5 4 4 5 5 4 4
9 9 9 9 9 9 9 9 9 8 8 8 8 8 7 7 7 7 6 5 5 6 6 6 6 6 6 6 5 5 5 5 5 5 5 4 4 4 4 4 4 4 4
9 9 9 9 8 8 8 8 8 8 8 8 8 7 7 7 7 6 6 5 5 5 5 5 5 5 5 5 5 5 5 4 4 4 4 4 4 4 3 3 3 3 3
8 8 8 8 8 8 8 8 8 8 7 7 7 7 7 6 6 6 6 5 5 4 4 5 5 5 5 4 4 4 4 4 4 4 4 4 3 3 3 3 3 3 3
8 8 8 8 8 8 7 7 7 7 7 7 7 6 6 6 6 6 5 5 5 4 4 4 4 4 4 4 4 4 4 4 4 3 3 3 3 3 3 2 2 2 2
7 7 7 7 7 7 7 7 7 7 7 7 6 6 6 6 5 5 5 5 4 4 4 4 4 4 3 3 3 3 3 3 3 3 3 3 3 2 2 2 2 2 2
7 7 7 7 7 7 7 7 6 6 6 6 6 6 5 5 5 5 5 4 4 4 4 4 3 3 3 3 3 3 3 3 3 3 2 2 2 2 2 2 2 2 1
6 6 6 6 6 6 6 6 6 6 6 6 6 5 5 5 5 5 4 4 4 4 4 3 3 3 3 2 2 2 2 2 2 2 2 2 2 2 1 1 1 1 1
6 6 6 6 6 6 6 6 6 6 5 5 5 5 5 5 5 4 4 4 4 3 3 3 2 2 2 2 2 1 1 2 2 2 2 1 1 1 1 1 1 1 1
5 5 5 5 5 5 5 5 5 5 5 5 5 5 4 4 4 4 4 3 3 3 3 2 2 2 2 1 1 1 1 1 1 1 1 1 1 1 1 1 1 1 1
4 4 5 5 5 5 5 5 5 5 5 4 4 4 4 4 4 3 3 3 3 3 2 2 2 1 1 1 1 1 1 0 0 1 0 0 0 0 0 -0 0 0 0
4 4 4 4 4 5 5 4 4 4 4 4 4 4 4 3 3 3 3 3 3 3 2 2 2 1 1 1 1 1 0 0 -0 0 -0 0 0 -0 -0 -0 -0 -0 -0
3 4 4 4 4 4 4 4 4 4 4 4 4 3 3 3 3 3 3 2 2 2 2 1 1 1 1 1 1 0 0 0 0 0 -0 -0 -0 -0 -0 -1 -0 -0 -0
3 3 3 3 3 3 3 3 3 3 3 3 3 3 3 3 2 2 2 2 2 1 1 1 1 1 1 1 1 0 -0 -0 -0 -0 -0 -1 -1 -1 -0 -1 -1 -1 -1
2 3 3 3 3 3 3 3 3 3 3 3 3 3 2 2 2 2 2 1 1 1 1 1 1 1 1 1 0 0 -0 -1 -1 -1 -1 -1 -1 -1 -1 -1 -1 -1 -1
Wind_Speed
5 5 5 5 5 5 5 4 4 5 4 4 4 4 4 3 3 3 4 7 6 6 6 6 5 6 6 7 7 7 8 9 9 9 10 10 11 11 12 12 13 13 14
6 5 5 4 5 5 4 4 4 4 3 4 4 4 3 3 3 3 3 4 6 6 6 5 5 6 7 7 7 8 9 10 10 10 11 11 12 12 12 13 13 14 15
6 5 4 4 4 5 5 4 5 4 4 3 3 3 3 3 2 3 2 2 3 4 5 5 5 6 7 7 8 9 10 10 11 11 11 12 13 13 13 14 14 15 15
7 5 4 4 5 5 4 4 4 4 3 3 3 2 2 2 2 2 2 2 2 2 3 5 6 6 7 8 8 9 10 10 11 12 12 13 13 14 14 15 15 16 16
7 6 5 5 5 5 4 4 4 3 3 3 2 2 1 1 1 1 2 2 2 2 2 3 4 5 7 8 9 10 11 11 11 12 13 14 14 14 15 15 16 17 17
7 6 5 5 5 4 4 4 4 3 3 3 3 1 0 1 1 1 1 1 1 2 2 3 3 3 5 7 9 10 11 11 12 13 13 14 14 15 15 16 17 17 18
7 6 5 5 5 4 5 5 4 4 3 3 2 1 1 1 1 1 1 0 0 1 2 3 3 3 4 5 8 10 11 12 13 13 14 15 15 16 16 17 17 17 17
7 6 6 5 5 4 5 5 5 3 3 2 2 2 1 2 1 1 1 1 0 1 2 2 3 4 4 5 6 9 11 13 14 14 14 15 16 16 17 17 17 17 17
7 6 6 5 5 5 5 5 5 5 4 3 2 1 2 1 1 1 1 1 1 1 2 2 3 3 5 5 6 8 11 13 14 14 15 15 16 16 16 17 17 18 17
7 7 6 6 5 5 5 5 5 4 5 4 3 1 1 0 1 1 2 2 2 2 2 2 3 3 4 5 6 8 11 13 14 14 15 15 16 16 16 17 17 17 17
6 7 7 6 6 5 6 6 5 5 4 4 3 2 2 1 2 2 3 2 2 2 2 3 3 3 4 5 6 8 11 13 14 14 15 15 16 16 17 17 17 17 17
4 6 6 6 6 5 6 6 6 6 5 4 4 3 3 3 3 3 3 3 3 3 3 3 3 3 4 5 6 9 12 12 13 13 14 15 16 16 16 17 17 17 18
4 6 6 6 5 5 6 6 6 6 5 5 5 4 3 3 2 3 3 3 3 3 3 3 2 3 4 5 7 10 11 11 12 13 14 14 15 15 16 16 17 17 18
4 5 6 6 6 6 6 6 5 5 5 5 5 5 3 3 3 3 3 2 3 3 3 3 2 3 4 6 8 10 9 10 12 13 13 13 14 15 16 16 17 17 17
4 5 5 6 6 6 6 6 5 5 5 4 4 4 3 3 3 3 3 3 3 3 4 3 2 3 5 7 8 9 9 10 12 12 12 12 13 14 15 15 16 16 16
5 5 5 5 6 6 6 6 5 5 5 4 3 4 3 3 3 2 3 3 4 4 3 3 4 5 7 7 9 9 9 10 10 11 12 12 13 14 14 15 16 16 16
5 6 5 5 6 7 7 6 6 6 6 5 5 5 4 3 3 2 2 2 3 3 5 5 5 5 7 7 8 8 9 9 9 11 12 13 13 14 14 14 15 15 16
5 5 5 5 6 6 6 6 6 7 7 6 6 5 5 4 4 3 2 3 3 3 4 5 5 5 6 7 7 8 7 8 8 10 11 12 13 13 14 14 14 15 15
5 5 5 5 5 5 6 6 6 6 6 6 6 6 5 5 4 3 3 3 2 3 3 4 5 5 5 6 7 7 7 7 8 9 10 11 11 13 13 13 14 14 15
4 4 4 4 5 5 6 6 5 6 6 5 5 5 5 5 5 4 3 3 3 3 3 3 4 5 5 6 6 6 6 7 7 8 9 10 11 11 12 12 13 14 15
4 4 4 4 4 4 5 5 5 6 6 5 5 4 4 4 4 4 4 3 3 3 3 3 4 5 5 5 5 6 7 7 7 6 7 7 8 8 9 10 11 13 15
3 4 4 4 4 3 4 5 5 5 5 5 5 4 4 4 4 5 5 4 4 4 4 4 4 5 6 6 6 6 7 7 6 5 7 8 7 8 8 8 11 14 15
3 3 3 3 3 3 4 5 5 4 5 5 5 4 3 3 4 3 3 2 3 4 5 5 6 6 6 6 6 7 7 7 7 7 8 8 7 8 7 9 12 13 14
3 3 3 3 3 3 4 5 4 4 4 4 4 5 4 4 4 3 3 3 3 3 4 4 5 6 6 6 6 6 7 7 7 5 6 7 7 8 8 8 10 12 14
3 3 3 3 3 3 4 4 4 3 3 3 3 4 4 4 4 3 3 3 3 3 3 5 6 6 7 8 7 5 5 5 6 6 5 5 6 8 8 7 7 10 12
2 2 2 3 3 3 3 4 4 3 3 2 2 3 4 4 4 4 4 3 3 3 3 3 4 4 4 5 6 5 5 5 5 4 3 4 5 6 5 5 6 8 9
Wind_Direction
158 153 152 149 148 144 146 140 138 132 132 132 125 125 123 118 115 102 82 68 58 56 50 41 33 28 22 17 10 5 357 350 346 341 338 334 330 328 326 322 320 318 316
159 157 152 153 149 148 145 144 140 137 135 126 124 124 125 122 118 113 101 92 68 55 47 39 30 23 18 11 6 3 357 349 343 338 333 330 327 323 321 320 318 317 316
162 160 157 160 153 147 146 141 141 141 133 126 126 123 119 115 118 113 107 103 91 72 53 37 26 20 14 10 5 1 355 350 346 344 339 334 330 327 323 319 317 315 314
169 164 163 162 158 153 151 149 152 150 144 141 138 133 128 121 121 110 111 101 75 64 60 45 28 16 10 6 2 357 351 349 346 343 339 334 330 326 323 320 319 317 314
176 172 166 160 161 159 157 155 155 152 150 143 135 130 132 142 130 128 122 97 71 55 41 51 35 21 10 3 357 350 346 345 344 341 338 335 331 327 324 320 318 316 315
172 168 169 167 166 165 162 161 151 140 144 139 128 120 135 184 173 162 149 117 82 51 32 19 7 11 10 2 355 348 344 342 341 339 336 333 331 328 326 323 320 318 316
171 168 167 172 177 175 171 164 153 146 138 141 151 151 183 211 221 191 189 183 82 38 18 7 357 347 348 354 353 348 343 340 339 336 333 332 331 329 326 325 324 323 321
174 172 170 171 173 169 168 167 165 160 151 169 184 180 197 197 186 198 201 205 251 329 347 351 350 347 340 339 346 344 342 340 337 335 335 335 333 329 328 327 325 325 324
177 176 177 174 173 175 175 178 179 177 170 170 186 212 218 227 253 199 211 228 251 284 315 333 338 338 336 334 335 341 342 338 336 335 334 333 332 331 330 329 328 328 327
180 178 180 181 183 184 181 181 185 181 177 176 174 206 270 278 244 239 205 219 264 278 295 317 320 324 332 333 334 335 338 338 336 334 335 333 333 331 330 329 328 329 331
180 179 181 184 187 186 184 181 181 183 184 188 187 187 194 204 244 250 251 255 268 272 288 301 304 310 330 333 332 337 336 335 335 335 335 333 332 331 331 331 332 332 331
180 182 184 188 191 189 185 185 187 186 186 190 193 199 201 205 216 236 251 258 274 284 293 288 289 306 328 326 329 336 334 333 334 335 336 337 337 336 334 333 332 330 329
191 189 185 189 192 192 189 185 186 191 192 193 196 203 210 218 219 236 236 256 279 289 285 275 283 302 319 320 324 330 327 329 331 333 333 336 337 336 333 332 331 329 328
198 194 188 189 189 186 187 185 184 188 192 195 197 198 202 208 208 214 226 244 272 280 271 279 296 303 314 318 323 319 317 325 329 331 333 336 335 334 331 330 330 328 327
190 191 189 187 184 182 186 185 184 185 186 192 193 194 198 200 205 216 220 224 244 267 277 287 299 305 315 315 317 314 315 323 326 329 332 333 333 332 331 329 329 329 329
185 186 189 187 183 183 184 186 182 182 183 186 187 191 191 196 200 212 218 233 243 252 262 289 299 302 308 309 313 314 315 316 322 329 331 332 332 330 330 330 330 330 330
185 186 185 187 188 187 185 183 184 182 185 185 186 191 196 198 200 207 216 225 239 246 261 286 295 298 303 308 314 315 316 321 324 328 328 329 328 328 329 330 331 332 332
186 186 184 188 192 190 187 186 186 188 188 189 191 193 196 196 205 207 216 233 248 259 262 276 292 298 299 306 309 312 318 319 320 324 324 325 326 328 329 330 331 333 333
180 178 182 190 193 191 189 190 191 192 194 196 195 196 197 197 206 212 223 237 254 265 263 265 284 296 298 304 309 310 314 315 319 320 322 324 324 326 327 329 332 333 332
179 180 184 193 196 193 193 191 194 196 198 200 200 200 202 204 209 213 224 233 246 258 262 267 280 293 299 304 306 310 313 318 318 319 322 322 318 319 322 326 330 332 332
182 182 187 195 196 196 195 192 196 199 199 199 201 205 209 206 213 223 228 231 238 247 258 268 278 291 296 304 308 310 308 313 311 315 317 320 320 320 323 324 327 329 330
179 180 188 193 197 198 184 191 200 201 200 201 203 203 198 196 205 225 235 247 253 253 256 263 274 277 288 295 304 306 308 310 309 321 315 312 314 314 318 324 326 326 329
172 179 185 190 198 193 182 194 200 204 201 203 202 199 197 198 206 211 223 245 271 281 273 266 265 275 285 290 296 299 300 301 302 309 309 302 309 310 315 318 320 323 328
175 177 187 197 200 194 181 188 190 203 205 208 208 203 197 199 204 210 227 247 270 283 284 281 276 282 290 293 289 287 290 295 296 301 307 299 307 308 311 311 317 322 326
181 179 184 194 200 198 183 183 185 200 203 211 211 207 201 204 199 205 220 237 265 291 312 306 303 300 301 300 299 294 294 296 302 306 313 300 303 309 304 301 314 319 322
188 179 182 195 203 205 187 185 189 193 202 207 208 206 204 208 199 208 222 227 245 276 295 309 313 312 309 307 305 293 287 288 298 301 312 307 304 316 309 301 312 321 323
Height
1523 1524 1525 1527 1528 1529 1530 1530 1531 1532 1532 1533 1533 1534 1534 1534 1534 1534 1534 1534 1534 1533 1532 1531 1530 1529 1528 1526 1525 1523 1522 1520 1519 1517 1515 1513 1511 1509 1507 1505 1503 1502 1500
1521 1522 1523 1525 1526 1527 1528 1529 1530 1531 1531 1531 1532 1532 1533 1533 1533 1533 1533 1533 1532 1532 1531 1530 1529 1528 1526 1525 1523 1522 1520 1518 1516 1515 1513 1511 1509 1507 1505 1503 1500 1498 1496
1519 1521 1522 1523 1524 1525 1527 1527 1528 1529 1530 1530 1531 1531 1531 1532 1532 1532 1531 1531 1531 1530 1529 1528 1527 1526 1525 1523 1522 1520 1518 1516 1514 1512 1510 1508 1506 1504 1502 1499 1497 1495 1493
1517 1519 1520 1521 1523 1524 1525 1526 1526 1527 1528 1529 1529 1530 1530 1530 1530 1530 1530 1529 1529 1529 1528 1527 1526 1525 1523 1522 1520 1518 1516 1514 1512 1510 1507 1505 1503 1501 1499 1496 1494 1492 1489
1515 1516 1517 1519 1520 1522 1523 1524 1525 1525 1526 1527 1528 1528 1528 1528 1529 1528 1528 1528 1527 1527 1526 1525 1524 1523 1522 1520 1518 1516 1514 1512 1509 1507 1505 1502 1500 1498 1495 1493 1490 1488 1486
1513 1514 1515 1516 1518 1519 1521 1522 1523 1523 1525 1525 1526 1526 1527 1527 1527 1527 1527 1526 1526 1525 1525 1524 1523 1521 1520 1518 1516 1514 1512 1509 1507 1505 1502 1500 1497 1495 1492 1489 1487 1484 1481
1510 1512 1513 1514 1516 1517 1518 1520 1521 1521 1522 1523 1524 1525 1525 1525 1525 1525 1525 1525 1524 1524 1523 1522 1521 1519 1517 1516 1514 1512 1509 1507 1504 1502 1499 1497 1494 1491 1488 1486 1483 1480 1477
1508 1509 1511 1512 1513 1515 1516 1517 1519 1519 1520 1521 1522 1523 1524 1525 1523 1523 1523 1523 1523 1522 1521 1520 1519 1517 1515 1513 1511 1509 1507 1504 1502 1499 1496 1493 1490 1488 1485 1482 1480 1477 1474
1505 1507 1508 1510 1510 1512 1513 1515 1516 1517 1518 1519 1520 1521 1523 1523 1522 1521 1521 1521 1521 1520 1519 1518 1517 1515 1513 1511 1509 1506 1504 1501 1499 1496 1493 1490 1487 1484 1481 1479 1476 1473 1470
1502 1504 1506 1507 1509 1510 1511 1512 1514 1515 1516 1516 1518 1518 1520 1520 1521 1520 1520 1519 1519 1518 1517 1516 1514 1513 1511 1509 1506 1504 1501 1498 1496 1493 1490 1487 1484 1481 1478 1475 1472 1469 1466
1499 1501 1503 1504 1506 1507 1508 1510 1511 1512 1513 1514 1515 1515 1516 1517 1517 1518 1517 1517 1516 1516 1514 1513 1512 1511 1508 1506 1504 1501 1498 1495 1493 1490 1487 1483 1480 1477 1474 1472 1468 1465 1462
1495 1498 1500 1501 1502 1504 1505 1507 1508 1509 1510 1511 1512 1513 1513 1513 1514 1515 1514 1514 1513 1513 1511 1511 1510 1508 1506 1503 1501 1498 1495 1493 1490 1486 1483 1480 1477 1474 1471 1467 1464 1462 1459
1492 1494 1496 1498 1499 1501 1502 1503 1505 1506 1507 1508 1509 1510 1511 1511 1511 1512 1511 1511 1510 1509 1508 1508 1507 1505 1503 1501 1498 1495 1493 1490 1486 1483 1480 1477 1473 1470 1467 1464 1461 1458 1455
1489 1491 1493 1494 1496 1498 1499 1500 1501 1503 1504 1505 1506 1507 1507 1508 1508 1509 1509 1508 1508 1507 1506 1505 1503 1502 1499 1497 1495 1492 1489 1486 1483 1480 1477 1473 1470 1467 1463 1460 1457 1454 1451
1486 1488 1489 1491 1493 1494 1496 1497 1498 1499 1501 1502 1502 1503 1504 1505 1505 1506 1505 1506 1506 1505 1503 1501 1500 1498 1496 1494 1492 1489 1486 1483 1480 1477 1473 1470 1467 1463 1460 1456 1453 1450 1447
1482 1484 1486 1488 1489 1491 1493 1493 1494 1496 1497 1498 1499 1500 1501 1502 1502 1502 1502 1503 1502 1502 1500 1497 1496 1495 1493 1491 1489 1486 1483 1480 1477 1474 1470 1467 1464 1460 1456 1453 1450 1447 1443
1479 1481 1483 1484 1486 1488 1489 1490 1491 1493 1494 1495 1496 1497 1498 1499 1499 1499 1499 1499 1499 1499 1496 1494 1493 1492 1490 1488 1485 1483 1481 1477 1474 1471 1467 1464 1460 1457 1453 1450 1447 1443 1440
1477 1478 1480 1482 1483 1484 1486 1487 1488 1489 1491 1492 1493 1494 1495 1496 1496 1496 1496 1496 1496 1495 1494 1491 1489 1488 1486 1484 1482 1480 1477 1474 1471 1468 1464 1461 1457 1454 1450 1447 1444 1440 1436
1474 1475 1477 1479 1480 1481 1482 1484 1485 1487 1488 1489 1490 1491 1492 1492 1493 1493 1493 1493 1493 1492 1491 1488 1486 1485 1483 1481 1479 1476 1474 1471 1468 1465 1461 1457 1454 1451 1448 1444 1440 1437 1433
1471 1472 1474 1476 1477 1478 1479 1481 1482 1484 1485 1486 1487 1488 1489 1489 1489 1489 1490 1490 1489 1489 1487 1486 1483 1481 1480 1478 1476 1473 1469 1467 1464 1461 1458 1455 1451 1448 1445 1441 1437 1434 1430
1469 1470 1472 1473 1474 1475 1476 1478 1479 1481 1482 1483 1484 1485 1485 1486 1486 1486 1487 1486 1486 1485 1484 1482 1480 1478 1477 1475 1473 1470 1467 1463 1461 1458 1455 1452 1448 1445 1442 1438 1434 1431 1427
1466 1468 1469 1470 1471 1472 1474 1475 1477 1478 1479 1480 1481 1481 1482 1483 1483 1483 1484 1483 1483 1482 1480 1479 1477 1475 1473 1472 1470 1467 1464 1461 1457 1455 1452 1448 1446 1442 1439 1435 1432 1428 1424
1464 1465 1466 1467 1468 1470 1471 1472 1474 1475 1476 1477 1478 1478 1479 1479 1480 1480 1480 1480 1479 1479 1478 1476 1474 1472 1471 1469 1466 1464 1461 1459 1455 1452 1449 1445 1443 1439 1436 1433 1429 1425 1422
1461 1462 1463 1465 1466 1467 1468 1470 1471 1472 1473 1474 1475 1475 1476 1476 1477 1477 1476 1476 1475 1475 1474 1473 1471 1469 1468 1466 1463 1461 1459 1455 1452 1450 1448 1443 1440 1437 1433 1430 1427 1423 1419
1459 1460 1461 1462 1463 1465 1466 1467 1468 1469 1470 1471 1472 1472 1473 1473 1474 1474 1473 1472 1471 1471 1470 1469 1468 1466 1464 1463 1461 1458 1455 1453 1449 1447 1445 1441 1437 1434 1430 1427 1424 1420 1417
1456 1457 1459 1460 1461 1462 1463 1464 1465 1466 1466 1467 1468 1469 1470 1470 1470 1470 1470 1469 1468 1467 1466 1465 1464 1463 1461 1459 1458 1456 1453 1450 1447 1444 1442 1439 1436 1433 1428 1425 1422 1418 1415